Time,TemperatureF,DewpointF,PressureIn,WindDirection,WindDirectionDegrees,WindSpeedMPH,WindSpeedGustMPH,Humidity,HourlyPrecipIn,Conditions,Clouds,dailyrainin,SolarRadiationWatts/m^2,SoftwareType,DateUTC
2013-04-09 00:00:00,43.5,35.8,29.82,South,188,2.1,5.0,74,0.00,SCT,,0.00,0.0,WeatherDisplay:10.37,2013-04-08 22:00:00,
2013-04-09 00:05:00,43.5,36.1,29.82,South,171,0.1,3.5,75,0.00,SCT,,0.00,0.0,WeatherDisplay:10.37,2013-04-08 22:05:00,
2013-04-09 00:10:00,43.4,36.0,29.82,SSE,162,0.7,3.5,75,0.00,SCT,,0.00,0.0,WeatherDisplay:10.37,2013-04-08 22:10:00,
2013-04-09 00:15:00,43.3,36.2,29.81,SSE,162,0.0,0.0,76,0.00,SCT,,0.00,0.0,WeatherDisplay:10.37,2013-04-08 22:15:00,
2013-04-09 00:20:00,43.2,36.1,29.81,SSE,162,0.5,2.0,76,0.00,SCT,,0.00,0.0,WeatherDisplay:10.37,2013-04-08 22:20:00,
2013-04-09 00:25:00,43.1,36.0,29.81,SSE,162,0.0,0.0,76,0.00,SCT,,0.00,0.0,WeatherDisplay:10.37,2013-04-08 22:25:00,
2013-04-09 00:30:00,43.1,36.4,29.81,SSE,162,0.0,0.0,77,0.00,SCT,,0.00,0.0,WeatherDisplay:10.37,2013-04-08 22:30:00,
2013-04-09 00:35:00,43.0,36.3,29.81,SSE,162,0.6,1.2,77,0.00,SCT,,0.00,0.0,WeatherDisplay:10.37,2013-04-08 22:35:00,
2013-04-09 00:40:00,43.0,36.3,29.81,SSE,162,1.9,3.5,77,0.00,SCT,,0.00,0.0,WeatherDisplay:10.37,2013-04-08 22:40:00,
2013-04-09 00:45:00,42.9,36.5,29.81,SE,132,1.1,3.5,78,0.00,SCT,,0.00,0.0,WeatherDisplay:10.37,2013-04-08 22:45:00,
2013-04-09 00:50:00,42.9,36.5,29.81,SE,131,1.2,4.0,78,0.00,SCT,,0.00,0.0,WeatherDisplay:10.37,2013-04-08 22:50:00,
2013-04-09 00:55:00,42.8,36.4,29.80,SE,142,0.9,3.5,78,0.00,SCT,,0.00,0.0,WeatherDisplay:10.37,2013-04-08 22:55:00,
2013-04-09 01:00:00,42.9,36.5,29.81,SSE,148,1.7,5.0,78,0.00,SCT,,0.00,0.0,WeatherDisplay:10.37,2013-04-08 23:00:00,
2013-04-09 01:05:00,42.9,36.5,29.80,SSE,165,0.2,4.6,78,0.00,SCT,,0.00,0.0,WeatherDisplay:10.37,2013-04-08 23:05:00,
2013-04-09 01:10:00,43.0,36.6,29.80,SE,144,1.3,3.5,78,0.00,SCT,,0.00,0.0,WeatherDisplay:10.37,2013-04-08 23:10:00,
2013-04-09 01:15:00,43.0,36.6,29.80,SE,144,1.3,3.5,78,0.00,SCT,,0.00,0.0,WeatherDisplay:10.37,2013-04-08 23:15:00,
2013-04-09 01:21:00,43.0,36.9,29.80,SSE,165,0.2,3.5,79,0.00,SCT,,0.00,0.0,WeatherDisplay:10.37,2013-04-08 23:21:00,
2013-04-09 01:27:00,42.9,36.8,29.80,SSE,161,0.1,3.5,79,0.00,SCT,,0.00,0.0,WeatherDisplay:10.37,2013-04-08 23:27:00,
2013-04-09 01:32:00,42.9,36.8,29.80,SE,133,0.0,2.3,79,0.00,SCT,,0.00,0.0,WeatherDisplay:10.37,2013-04-08 23:32:00,
2013-04-09 01:37:00,42.9,36.8,29.80,SE,133,0.5,2.3,79,0.00,SCT,,0.00,0.0,WeatherDisplay:10.37,2013-04-08 23:37:00,
2013-04-09 01:42:00,42.8,36.7,29.80,SE,140,0.0,1.2,79,0.00,SCT,,0.00,0.0,WeatherDisplay:10.37,2013-04-08 23:42:00,
2013-04-09 01:48:00,42.8,37.1,29.80,SSE,147,1.8,3.5,80,0.00,SCT,,0.00,0.0,WeatherDisplay:10.37,2013-04-08 23:48:00,
2013-04-09 01:53:00,42.7,37.0,29.80,South,172,1.2,2.3,80,0.00,SCT,,0.00,0.0,WeatherDisplay:10.37,2013-04-08 23:53:00,
2013-04-09 01:58:00,42.6,36.9,29.80,South,172,1.1,3.5,80,0.00,SCT,,0.00,0.0,WeatherDisplay:10.37,2013-04-08 23:58:00,
2013-04-09 02:03:00,42.6,37.2,29.80,South,172,0.5,2.3,81,0.00,SCT,,0.00,0.0,WeatherDisplay:10.37,2013-04-09 00:03:00,
2013-04-09 02:08:00,42.6,37.2,29.80,South,169,0.4,3.5,81,0.00,SCT,,0.00,0.0,WeatherDisplay:10.37,2013-04-09 00:08:00,
2013-04-09 02:13:00,42.5,37.4,29.79,SE,140,1.2,3.5,82,0.00,SCT,,0.00,0.0,WeatherDisplay:10.37,2013-04-09 00:13:00,
2013-04-09 02:18:00,42.5,37.4,29.79,South,185,0.9,3.5,82,0.00,SCT,,0.00,0.0,WeatherDisplay:10.37,2013-04-09 00:18:00,
2013-04-09 02:24:00,42.4,37.3,29.79,South,185,0.0,1.2,82,0.00,SCT,,0.00,0.0,WeatherDisplay:10.37,2013-04-09 00:24:00,
2013-04-09 02:29:00,42.3,37.2,29.79,South,185,0.4,3.5,82,0.00,SCT,,0.00,0.0,WeatherDisplay:10.37,2013-04-09 00:29:00,
2013-04-09 02:35:00,42.3,37.5,29.79,South,185,0.0,2.0,83,0.00,SCT,,0.00,0.0,WeatherDisplay:10.37,2013-04-09 00:35:00,
2013-04-09 02:40:00,42.2,37.4,29.79,South,185,0.0,1.0,83,0.00,SCT,,0.00,0.0,WeatherDisplay:10.37,2013-04-09 00:40:00,
2013-04-09 02:45:00,42.2,37.4,29.79,South,185,0.0,0.0,83,0.00,SCT,,0.00,0.0,WeatherDisplay:10.37,2013-04-09 00:45:00,
2013-04-09 02:50:00,42.1,37.3,29.79,South,185,0.0,1.0,83,0.00,SCT,,0.00,0.0,WeatherDisplay:10.37,2013-04-09 00:50:00,
2013-04-09 02:55:00,42.1,37.6,29.79,South,185,0.0,0.0,84,0.00,SCT,,0.00,0.0,WeatherDisplay:10.37,2013-04-09 00:55:00,
2013-04-09 03:00:00,42.0,37.5,29.78,South,185,0.0,1.0,84,0.00,SCT,,0.00,0.0,WeatherDisplay:10.37,2013-04-09 01:00:00,
2013-04-09 03:07:00,42.0,37.5,29.78,South,185,0.0,1.2,84,0.00,SCT,,0.00,0.0,WeatherDisplay:10.37,2013-04-09 01:07:00,
2013-04-09 03:12:00,41.9,37.4,29.78,South,184,0.3,1.2,84,0.00,SCT,,0.00,0.0,WeatherDisplay:10.37,2013-04-09 01:12:00,
2013-04-09 03:17:00,42.0,37.5,29.78,SE,140,0.5,2.3,84,0.00,SCT,,0.00,0.0,WeatherDisplay:10.37,2013-04-09 01:17:00,
2013-04-09 03:22:00,42.0,37.5,29.78,SE,140,0.0,1.0,84,0.00,SCT,,0.00,0.0,WeatherDisplay:10.37,2013-04-09 01:22:00,
2013-04-09 03:27:00,42.0,37.5,29.78,ESE,122,0.9,2.3,84,0.00,SCT,,0.00,0.0,WeatherDisplay:10.37,2013-04-09 01:27:00,
2013-04-09 03:32:00,42.0,37.2,29.77,ESE,117,1.3,4.6,83,0.00,SCT,,0.00,0.0,WeatherDisplay:10.37,2013-04-09 01:32:00,
2013-04-09 03:38:00,42.1,37.3,29.77,SE,127,1.6,4.6,83,0.00,SCT,,0.00,0.0,WeatherDisplay:10.37,2013-04-09 01:38:00,
2013-04-09 03:43:00,42.3,37.2,29.77,ESE,117,1.8,4.6,82,0.00,SCT,,0.00,0.0,WeatherDisplay:10.37,2013-04-09 01:43:00,
2013-04-09 03:48:00,42.4,37.3,29.77,SE,136,3.4,6.0,82,0.00,SCT,,0.00,0.0,WeatherDisplay:10.37,2013-04-09 01:48:00,
2013-04-09 03:53:00,42.5,37.1,29.77,SE,129,2.0,4.6,81,0.00,SCT,,0.00,0.0,WeatherDisplay:10.37,2013-04-09 01:53:00,
2013-04-09 03:58:00,42.6,37.2,29.77,SE,135,2.1,5.0,81,0.00,SCT,,0.00,0.0,WeatherDisplay:10.37,2013-04-09 01:58:00,
2013-04-09 04:03:00,42.6,37.2,29.77,SE,145,3.6,5.8,81,0.00,SCT,,0.00,0.0,WeatherDisplay:10.37,2013-04-09 02:03:00,
2013-04-09 04:08:00,42.6,37.2,29.77,SSE,155,2.7,5.8,81,0.00,SCT,,0.00,0.0,WeatherDisplay:10.37,2013-04-09 02:08:00,
2013-04-09 04:13:00,42.6,37.5,29.76,SSE,153,3.6,8.1,82,0.00,SCT,,0.00,0.0,WeatherDisplay:10.37,2013-04-09 02:13:00,
2013-04-09 04:18:00,42.6,37.5,29.76,SSE,161,1.8,6.9,82,0.00,SCT,,0.00,0.0,WeatherDisplay:10.37,2013-04-09 02:18:00,
2013-04-09 04:25:00,42.5,37.4,29.76,SSE,148,0.0,5.0,82,0.00,SCT,,0.00,0.0,WeatherDisplay:10.37,2013-04-09 02:25:00,
2013-04-09 04:30:00,42.5,37.4,29.76,SSE,152,1.0,5.0,82,0.00,SCT,,0.00,0.0,WeatherDisplay:10.37,2013-04-09 02:30:00,
2013-04-09 04:36:00,42.4,37.3,29.76,SSE,161,1.9,3.5,82,0.00,SCT,,0.00,0.0,WeatherDisplay:10.37,2013-04-09 02:36:00,
2013-04-09 04:42:00,42.4,37.3,29.76,ESE,115,3.3,4.6,82,0.00,SCT,,0.00,0.0,WeatherDisplay:10.37,2013-04-09 02:42:00,
2013-04-09 04:48:00,42.4,37.3,29.76,ESE,106,4.2,7.0,82,0.00,SCT,,0.00,0.0,WeatherDisplay:10.37,2013-04-09 02:48:00,
2013-04-09 04:53:00,42.4,37.3,29.76,SSE,147,4.7,8.1,82,0.00,SCT,,0.00,0.0,WeatherDisplay:10.37,2013-04-09 02:53:00,
2013-04-09 04:58:00,42.4,37.3,29.76,SE,142,3.2,6.9,82,0.00,SCT,,0.00,0.0,WeatherDisplay:10.37,2013-04-09 02:58:00,
2013-04-09 05:03:00,42.3,37.5,29.76,SE,141,2.5,6.0,83,0.00,SCT,,0.00,0.0,WeatherDisplay:10.37,2013-04-09 03:03:00,
2013-04-09 05:08:00,42.2,37.4,29.76,ESE,122,1.7,3.5,83,0.00,SCT,,0.00,0.0,WeatherDisplay:10.37,2013-04-09 03:08:00,
2013-04-09 05:13:00,42.1,37.6,29.76,South,177,2.3,4.0,84,0.00,SCT,,0.00,0.0,WeatherDisplay:10.37,2013-04-09 03:13:00,
2013-04-09 05:18:00,42.1,37.6,29.76,SE,135,2.7,6.0,84,0.00,SCT,,0.00,0.0,WeatherDisplay:10.37,2013-04-09 03:18:00,
2013-04-09 05:23:00,42.0,37.8,29.76,East,86,1.8,5.8,85,0.00,SCT,,0.00,0.0,WeatherDisplay:10.37,2013-04-09 03:23:00,
2013-04-09 05:28:00,41.9,38.0,29.76,SE,126,0.3,3.5,86,0.00,SCT,,0.00,0.0,WeatherDisplay:10.37,2013-04-09 03:28:00,
2013-04-09 05:33:00,41.8,37.9,29.76,SSE,163,1.9,3.5,86,0.00,SCT,,0.00,0.0,WeatherDisplay:10.37,2013-04-09 03:33:00,
2013-04-09 05:38:00,41.7,38.1,29.76,SE,140,1.3,3.5,87,0.00,SCT,,0.00,0.0,WeatherDisplay:10.37,2013-04-09 03:38:00,
2013-04-09 05:43:00,41.6,38.0,29.76,SE,136,1.0,3.5,87,0.00,SCT,,0.00,0.0,WeatherDisplay:10.37,2013-04-09 03:43:00,
2013-04-09 05:48:00,41.5,38.2,29.77,East,96,1.0,3.5,88,0.00,SCT,,0.00,0.0,WeatherDisplay:10.37,2013-04-09 03:48:00,
2013-04-09 05:53:00,41.4,38.1,29.77,SSE,164,2.3,4.6,88,0.00,SCT,,0.00,0.0,WeatherDisplay:10.37,2013-04-09 03:53:00,
2013-04-09 05:58:00,41.3,38.0,29.77,SE,132,2.8,5.8,88,0.00,SCT,,0.00,0.0,WeatherDisplay:10.37,2013-04-09 03:58:00,
2013-04-09 06:00:00,41.3,38.0,29.77,SE,136,0.1,4.6,88,0.00,SCT,,0.00,0.0,WeatherDisplay:10.37,2013-04-09 04:00:00,
2013-04-09 06:02:00,41.2,38.2,29.77,SE,140,3.9,7.0,89,0.00,SCT,,0.00,0.0,WeatherDisplay:10.37,2013-04-09 04:02:00,
2013-04-09 06:03:00,41.2,38.2,29.77,SE,128,3.9,6.9,89,0.00,SCT,,0.00,0.0,WeatherDisplay:10.37,2013-04-09 04:03:00,
2013-04-09 06:08:00,41.2,38.2,29.77,ESE,115,1.2,3.5,89,0.00,SCT,,0.00,0.0,WeatherDisplay:10.37,2013-04-09 04:08:00,
2013-04-09 06:12:00,41.2,38.2,29.77,SE,134,0.7,6.0,89,0.00,SCT,,0.00,0.0,WeatherDisplay:10.37,2013-04-09 04:12:00,
2013-04-09 06:17:00,41.2,38.5,29.77,ESE,108,3.5,8.0,90,0.00,SCT,,0.00,0.0,WeatherDisplay:10.37,2013-04-09 04:17:00,
2013-04-09 06:22:00,41.2,38.5,29.77,SE,135,3.1,7.0,90,0.00,SCT,,0.00,0.0,WeatherDisplay:10.37,2013-04-09 04:22:00,
2013-04-09 06:27:00,41.1,38.4,29.77,ESE,120,4.1,11.5,90,0.00,SCT,,0.00,0.0,WeatherDisplay:10.37,2013-04-09 04:27:00,
2013-04-09 06:32:00,41.1,38.7,29.77,ESE,113,2.7,9.2,91,0.00,SCT,,0.00,0.0,WeatherDisplay:10.37,2013-04-09 04:32:00,
2013-04-09 06:37:00,41.1,38.7,29.77,SE,124,4.4,9.2,91,0.00,SCT,,0.00,0.0,WeatherDisplay:10.37,2013-04-09 04:37:00,
2013-04-09 06:42:00,41.1,38.7,29.77,SE,125,1.1,9.2,91,0.00,SCT,,0.00,5.0,WeatherDisplay:10.37,2013-04-09 04:42:00,
2013-04-09 06:47:00,41.1,38.7,29.77,ESE,119,2.6,5.0,91,0.00,SCT,,0.00,7.0,WeatherDisplay:10.37,2013-04-09 04:47:00,
2013-04-09 06:52:00,41.1,38.7,29.77,SE,139,4.2,5.8,91,0.00,SCT,,0.00,7.0,WeatherDisplay:10.37,2013-04-09 04:52:00,
2013-04-09 06:57:00,41.1,38.7,29.77,SE,132,3.0,6.0,91,0.00,SCT,,0.00,7.0,WeatherDisplay:10.37,2013-04-09 04:57:00,
2013-04-09 07:02:00,41.1,38.7,29.77,SSE,150,4.5,9.2,91,0.00,SCT,,0.00,12.0,WeatherDisplay:10.37,2013-04-09 05:02:00,
2013-04-09 07:07:00,41.1,38.7,29.77,SE,132,4.3,9.2,91,0.00,BKN,,0.00,14.0,WeatherDisplay:10.37,2013-04-09 05:07:00,
2013-04-09 07:12:00,41.2,39.1,29.77,ESE,115,4.5,10.4,92,0.00,BKN,,0.00,18.0,WeatherDisplay:10.37,2013-04-09 05:12:00,
2013-04-09 07:17:00,41.2,39.1,29.77,ESE,102,2.8,9.2,92,0.00,BKN,,0.00,18.0,WeatherDisplay:10.37,2013-04-09 05:17:00,
2013-04-09 07:22:00,41.2,39.1,29.77,ESE,121,3.5,6.9,92,0.00,BKN,,0.00,18.0,WeatherDisplay:10.37,2013-04-09 05:22:00,
2013-04-09 07:27:00,41.2,39.1,29.77,ESE,123,2.2,4.0,92,0.00,BKN,,0.00,16.0,WeatherDisplay:10.37,2013-04-09 05:27:00,
2013-04-09 07:32:00,41.2,39.1,29.77,South,171,2.8,5.0,92,0.00,BKN,,0.00,16.0,WeatherDisplay:10.37,2013-04-09 05:32:00,
2013-04-09 07:37:00,41.2,39.1,29.78,SSE,155,2.7,5.0,92,0.00,BKN,,0.00,14.0,WeatherDisplay:10.37,2013-04-09 05:37:00,
2013-04-09 07:42:00,41.2,39.1,29.78,SSE,154,1.9,6.9,92,0.00,BKN,,0.00,14.0,WeatherDisplay:10.37,2013-04-09 05:42:00,
2013-04-09 07:47:00,41.2,39.1,29.78,SE,146,3.0,6.0,92,0.00,BKN,,0.00,30.0,WeatherDisplay:10.37,2013-04-09 05:47:00,
2013-04-09 07:52:00,41.3,39.2,29.78,ESE,115,4.1,9.2,92,0.00,BKN,,0.00,30.0,WeatherDisplay:10.37,2013-04-09 05:52:00,
2013-04-09 07:57:00,41.3,39.2,29.78,SE,143,4.2,8.1,92,0.00,BKN,,0.00,32.0,WeatherDisplay:10.37,2013-04-09 05:57:00,
2013-04-09 08:02:00,41.3,39.2,29.78,SE,140,2.9,6.9,92,0.00,BKN,,0.00,32.0,WeatherDisplay:10.37,2013-04-09 06:02:00,
2013-04-09 08:07:00,41.4,39.3,29.78,SE,138,3.0,6.9,92,0.00,BKN,,0.00,30.0,WeatherDisplay:10.37,2013-04-09 06:07:00,
2013-04-09 08:12:00,41.4,39.3,29.78,SSE,151,4.3,7.0,92,0.00,BKN,,0.00,32.0,WeatherDisplay:10.37,2013-04-09 06:12:00,
2013-04-09 08:17:00,41.4,39.3,29.78,SE,132,3.0,7.0,92,0.00,BKN,,0.00,28.0,WeatherDisplay:10.37,2013-04-09 06:17:00,
2013-04-09 08:22:00,41.4,39.3,29.78,SE,130,5.1,8.1,92,0.00,BKN,,0.00,25.0,WeatherDisplay:10.37,2013-04-09 06:22:00,
2013-04-09 08:27:00,41.4,39.5,29.78,SE,136,3.0,5.0,93,0.00,BKN,,0.00,30.0,WeatherDisplay:10.37,2013-04-09 06:27:00,
2013-04-09 08:32:00,41.4,39.5,29.78,SSE,147,2.7,5.0,93,0.00,BKN,,0.00,39.0,WeatherDisplay:10.37,2013-04-09 06:32:00,
2013-04-09 08:38:00,41.5,39.6,29.78,ESE,115,3.7,5.0,93,0.00,BKN,,0.00,51.0,WeatherDisplay:10.37,2013-04-09 06:38:00,
2013-04-09 08:43:00,41.5,39.6,29.78,East,90,2.7,6.9,93,0.00,BKN,,0.00,56.0,WeatherDisplay:10.37,2013-04-09 06:43:00,
2013-04-09 08:48:00,41.5,39.6,29.78,ESE,103,2.7,4.6,93,0.00,BKN,,0.00,69.0,WeatherDisplay:10.37,2013-04-09 06:48:00,
2013-04-09 08:53:00,41.6,39.7,29.78,SE,135,2.1,8.1,93,0.00,BKN,,0.00,70.0,WeatherDisplay:10.37,2013-04-09 06:53:00,
2013-04-09 08:58:00,41.7,39.8,29.78,SE,130,2.1,4.0,93,0.00,BKN,,0.00,63.0,WeatherDisplay:10.37,2013-04-09 06:58:00,
2013-04-09 09:03:00,41.8,39.9,29.78,ESE,116,2.0,4.0,93,0.00,BKN,,0.00,58.0,WeatherDisplay:10.37,2013-04-09 07:03:00,
2013-04-09 09:08:00,41.9,40.0,29.78,SE,132,2.2,4.0,93,0.00,BKN,,0.00,69.0,WeatherDisplay:10.37,2013-04-09 07:08:00,
2013-04-09 09:13:00,41.9,40.0,29.78,SE,129,2.2,3.5,93,0.00,BKN,,0.00,84.0,WeatherDisplay:10.37,2013-04-09 07:13:00,
2013-04-09 09:18:00,42.0,40.1,29.78,ESE,107,2.0,5.8,93,0.00,BKN,,0.00,98.0,WeatherDisplay:10.37,2013-04-09 07:18:00,
2013-04-09 09:23:00,42.2,40.3,29.78,SE,128,4.3,7.0,93,0.00,BKN,,0.00,90.0,WeatherDisplay:10.37,2013-04-09 07:23:00,
2013-04-09 09:28:00,42.3,40.4,29.78,SSE,165,3.6,5.0,93,0.00,BKN,,0.00,83.0,WeatherDisplay:10.37,2013-04-09 07:28:00,
2013-04-09 09:33:00,42.4,40.5,29.78,SSE,156,1.1,3.5,93,0.00,BKN,,0.00,91.0,WeatherDisplay:10.37,2013-04-09 07:33:00,
2013-04-09 09:38:00,42.6,40.7,29.78,ESE,115,2.1,4.6,93,0.00,BKN,,0.00,113.0,WeatherDisplay:10.37,2013-04-09 07:38:00,
2013-04-09 09:43:00,42.7,40.8,29.79,SE,130,3.2,5.0,93,0.00,BKN,,0.00,77.0,WeatherDisplay:10.37,2013-04-09 07:43:00,
2013-04-09 09:48:00,42.8,40.9,29.79,ESE,119,0.8,3.5,93,0.00,BKN,,0.00,69.0,WeatherDisplay:10.37,2013-04-09 07:48:00,
2013-04-09 09:53:00,42.9,41.0,29.79,SSE,161,1.5,4.6,93,0.00,BKN,,0.00,56.0,WeatherDisplay:10.37,2013-04-09 07:53:00,
2013-04-09 09:58:00,42.9,40.7,29.79,SE,140,2.9,5.0,92,0.00,BKN,,0.00,65.0,WeatherDisplay:10.37,2013-04-09 07:58:00,
2013-04-09 10:03:00,43.0,40.8,29.79,SE,131,2.4,4.0,92,0.00,BKN,,0.00,79.0,WeatherDisplay:10.37,2013-04-09 08:03:00,
2013-04-09 10:08:00,43.0,40.8,29.79,SE,146,2.0,4.0,92,0.00,BKN,,0.00,70.0,WeatherDisplay:10.37,2013-04-09 08:08:00,
2013-04-09 10:13:00,43.1,40.9,29.79,ESE,121,2.9,5.0,92,0.00,BKN,,0.00,100.0,WeatherDisplay:10.37,2013-04-09 08:13:00,
2013-04-09 10:18:00,43.1,40.9,29.80,SE,145,0.6,3.5,92,0.00,BKN,,0.00,100.0,WeatherDisplay:10.37,2013-04-09 08:18:00,
2013-04-09 10:23:00,43.3,41.1,29.79,SE,140,1.9,5.0,92,0.00,BKN,,0.00,93.0,WeatherDisplay:10.37,2013-04-09 08:23:00,
2013-04-09 10:28:00,43.4,41.2,29.80,SE,125,0.9,3.0,92,0.00,BKN,,0.00,162.0,WeatherDisplay:10.37,2013-04-09 08:28:00,
2013-04-09 10:33:00,43.6,41.1,29.79,SE,136,3.0,4.6,91,0.00,BKN,,0.00,160.0,WeatherDisplay:10.37,2013-04-09 08:33:00,
2013-04-09 10:38:00,43.8,41.3,29.79,SSE,153,3.2,4.0,91,0.00,BKN,,0.00,186.0,WeatherDisplay:10.37,2013-04-09 08:38:00,
2013-04-09 10:43:00,44.1,41.4,29.79,ESE,115,2.2,5.0,90,0.00,BKN,,0.00,225.0,WeatherDisplay:10.37,2013-04-09 08:43:00,
2013-04-09 10:48:00,44.6,41.6,29.79,SE,140,1.2,4.6,89,0.00,BKN,,0.00,265.0,WeatherDisplay:10.37,2013-04-09 08:48:00,
2013-04-09 10:53:00,45.0,41.7,29.79,SE,138,3.5,5.8,88,0.00,BKN,,0.00,265.0,WeatherDisplay:10.37,2013-04-09 08:53:00,
2013-04-09 10:58:00,45.3,41.7,29.79,SE,127,3.5,6.0,87,0.00,BKN,,0.00,309.0,WeatherDisplay:10.37,2013-04-09 08:58:00,
2013-04-09 11:03:00,45.6,42.0,29.79,South,178,2.7,4.0,87,0.00,SCT,,0.00,193.0,WeatherDisplay:10.37,2013-04-09 09:03:00,
2013-04-09 11:08:00,45.8,41.9,29.79,SE,126,3.9,6.0,86,0.00,BKN,,0.00,193.0,WeatherDisplay:10.37,2013-04-09 09:08:00,
2013-04-09 11:13:00,45.8,41.5,29.79,ESE,123,3.3,6.9,85,0.00,BKN,,0.00,239.0,WeatherDisplay:10.37,2013-04-09 09:13:00,
2013-04-09 11:18:00,45.9,41.6,29.79,East,97,0.7,3.5,85,0.00,BKN,,0.00,148.0,WeatherDisplay:10.37,2013-04-09 09:18:00,
2013-04-09 11:24:00,46.2,41.9,29.79,SSE,167,1.4,3.5,85,0.00,BKN,,0.00,221.0,WeatherDisplay:10.37,2013-04-09 09:24:00,
2013-04-09 11:30:00,46.5,41.9,29.79,SSE,161,3.0,4.0,84,0.00,BKN,,0.00,227.0,WeatherDisplay:10.37,2013-04-09 09:30:00,
2013-04-09 11:35:00,46.7,42.1,29.79,SSW,212,1.5,4.0,84,0.00,BKN,,0.00,301.0,WeatherDisplay:10.37,2013-04-09 09:35:00,
2013-04-09 11:40:00,47.0,42.1,29.79,SSE,155,1.5,4.0,83,0.00,BKN,,0.00,329.0,WeatherDisplay:10.37,2013-04-09 09:40:00,
2013-04-09 11:45:00,47.3,42.1,29.79,SE,143,1.8,4.6,82,0.00,SCT,,0.00,334.0,WeatherDisplay:10.37,2013-04-09 09:45:00,
2013-04-09 11:52:00,47.7,41.8,29.79,ESE,122,5.1,8.1,80,0.00,BKN,,0.00,220.0,WeatherDisplay:10.37,2013-04-09 09:52:00,
2013-04-09 11:57:00,47.5,42.0,29.79,East,101,0.0,3.5,81,0.00,BKN,,0.00,288.0,WeatherDisplay:10.37,2013-04-09 09:57:00,
2013-04-09 12:02:00,47.7,42.2,29.79,ESE,105,0.5,3.0,81,0.00,BKN,,0.00,318.0,WeatherDisplay:10.37,2013-04-09 10:02:00,
2013-04-09 12:07:00,48.0,42.4,29.79,South,177,1.6,4.6,81,0.00,BKN,,0.00,301.0,WeatherDisplay:10.37,2013-04-09 10:07:00,
2013-04-09 12:12:00,48.2,42.6,29.79,SSE,148,2.6,5.8,81,0.00,BKN,,0.00,320.0,WeatherDisplay:10.37,2013-04-09 10:12:00,
2013-04-09 12:17:00,48.3,42.1,29.79,SE,133,2.6,6.9,79,0.00,BKN,,0.00,246.0,WeatherDisplay:10.37,2013-04-09 10:17:00,
2013-04-09 12:22:00,48.2,42.0,29.79,East,82,0.0,2.3,79,0.00,BKN,,0.00,199.0,WeatherDisplay:10.37,2013-04-09 10:22:00,
2013-04-09 12:28:00,48.2,42.0,29.79,SSE,150,1.9,3.5,79,0.00,BKN,,0.00,260.0,WeatherDisplay:10.37,2013-04-09 10:28:00,
2013-04-09 12:33:00,48.4,42.5,29.79,ESE,122,2.7,5.0,80,0.00,BKN,,0.00,295.0,WeatherDisplay:10.37,2013-04-09 10:33:00,
2013-04-09 12:38:00,48.6,42.7,29.78,ESE,123,2.9,9.0,80,0.00,BKN,,0.00,260.0,WeatherDisplay:10.37,2013-04-09 10:38:00,
2013-04-09 12:43:00,48.7,42.1,29.78,SE,139,2.7,5.0,78,0.00,BKN,,0.00,260.0,WeatherDisplay:10.37,2013-04-09 10:43:00,
2013-04-09 12:48:00,48.9,42.3,29.78,SE,131,4.0,8.1,78,0.00,BKN,,0.00,258.0,WeatherDisplay:10.37,2013-04-09 10:48:00,
2013-04-09 12:53:00,49.1,42.2,29.78,SSE,159,1.5,3.5,77,0.00,BKN,,0.00,250.0,WeatherDisplay:10.37,2013-04-09 10:53:00,
2013-04-09 12:59:00,49.4,41.8,29.78,SSE,153,3.0,6.9,75,0.00,BKN,,0.00,272.0,WeatherDisplay:10.37,2013-04-09 10:59:00,
2013-04-09 13:04:00,49.5,41.6,29.78,SSE,168,2.2,4.0,74,0.00,BKN,,0.00,309.0,WeatherDisplay:10.37,2013-04-09 11:04:00,
2013-04-09 13:09:00,49.7,41.4,29.78,SE,136,2.1,11.5,73,0.00,BKN,,0.00,265.0,WeatherDisplay:10.37,2013-04-09 11:09:00,
2013-04-09 13:14:00,50.2,41.9,29.78,South,180,3.1,6.0,73,0.00,BKN,,0.00,322.0,WeatherDisplay:10.37,2013-04-09 11:14:00,
2013-04-09 13:19:00,50.5,41.4,29.78,SSE,161,2.9,5.0,71,0.00,BKN,,0.00,334.0,WeatherDisplay:10.37,2013-04-09 11:19:00,
2013-04-09 13:24:00,50.4,41.0,29.78,South,173,4.5,6.9,70,0.00,SCT,,0.00,258.0,WeatherDisplay:10.37,2013-04-09 11:24:00,
2013-04-09 13:29:00,50.3,40.9,29.78,SSE,155,3.4,9.2,70,0.00,BKN,,0.00,232.0,WeatherDisplay:10.37,2013-04-09 11:29:00,
2013-04-09 13:34:00,50.2,40.8,29.78,SW,217,1.3,4.6,70,0.00,BKN,,0.00,202.0,WeatherDisplay:10.37,2013-04-09 11:34:00,
2013-04-09 13:39:00,50.1,41.1,29.78,South,188,0.1,2.0,71,0.00,BKN,,0.00,206.0,WeatherDisplay:10.37,2013-04-09 11:39:00,
2013-04-09 13:45:00,50.2,41.2,29.78,SSE,148,5.0,8.0,71,0.00,BKN,,0.00,209.0,WeatherDisplay:10.37,2013-04-09 11:45:00,
2013-04-09 13:50:00,50.3,40.5,29.78,SSE,156,3.0,9.0,69,0.00,BKN,,0.00,156.0,WeatherDisplay:10.37,2013-04-09 11:50:00,
2013-04-09 13:55:00,50.4,41.0,29.78,South,185,5.2,7.0,70,0.00,BKN,,0.00,125.0,WeatherDisplay:10.37,2013-04-09 11:55:00,
2013-04-09 14:00:00,50.4,41.0,29.79,SSE,165,3.4,5.8,70,0.00,BKN,,0.00,98.0,WeatherDisplay:10.37,2013-04-09 12:00:00,
2013-04-09 14:06:00,50.4,41.0,29.79,SSE,163,1.0,5.8,70,0.00,BKN,,0.00,128.0,WeatherDisplay:10.37,2013-04-09 12:06:00,
2013-04-09 14:11:00,50.3,40.5,29.79,South,177,4.4,5.8,69,0.00,BKN,,0.00,139.0,WeatherDisplay:10.37,2013-04-09 12:11:00,
2013-04-09 14:16:00,50.2,40.8,29.79,SSE,150,1.0,4.6,70,0.00,BKN,,0.00,142.0,WeatherDisplay:10.37,2013-04-09 12:16:00,
2013-04-09 14:21:00,50.3,40.9,29.78,SSE,165,5.5,7.0,70,0.00,BKN,,0.00,105.0,WeatherDisplay:10.37,2013-04-09 12:21:00,
2013-04-09 14:26:00,50.2,40.4,29.78,SSE,157,1.5,5.8,69,0.00,BKN,,0.00,105.0,WeatherDisplay:10.37,2013-04-09 12:26:00,
2013-04-09 14:31:00,50.2,40.8,29.78,SE,132,3.6,5.8,70,0.00,BKN,,0.00,114.0,WeatherDisplay:10.37,2013-04-09 12:31:00,
2013-04-09 14:37:00,50.3,40.9,29.78,SE,126,1.1,4.0,70,0.00,BKN,,0.00,135.0,WeatherDisplay:10.37,2013-04-09 12:37:00,
2013-04-09 14:42:00,50.4,40.6,29.78,SSE,160,3.5,6.9,69,0.00,BKN,,0.00,121.0,WeatherDisplay:10.37,2013-04-09 12:42:00,
2013-04-09 14:48:00,50.4,40.6,29.78,SSE,164,4.6,6.9,69,0.00,BKN,,0.00,77.0,WeatherDisplay:10.37,2013-04-09 12:48:00,
2013-04-09 14:53:00,50.4,41.0,29.78,SSE,151,3.4,8.1,70,0.00,BKN,,0.00,91.0,WeatherDisplay:10.37,2013-04-09 12:53:00,
2013-04-09 14:58:00,50.3,42.3,29.78,ESE,121,1.7,4.6,74,0.00,BKN,,0.00,81.0,WeatherDisplay:10.37,2013-04-09 12:58:00,
2013-04-09 15:03:00,50.1,42.5,29.78,SSE,156,0.7,4.6,75,0.00,BKN,,0.00,70.0,WeatherDisplay:10.37,2013-04-09 13:03:00,
2013-04-09 15:08:00,50.0,43.1,29.78,ESE,116,0.5,2.3,77,0.00,BKN,,0.00,76.0,WeatherDisplay:10.37,2013-04-09 13:08:00,
2013-04-09 15:13:00,49.8,42.9,29.78,East,96,4.8,9.2,77,0.00,BKN,,0.00,98.0,WeatherDisplay:10.37,2013-04-09 13:13:00,
2013-04-09 15:18:00,49.6,43.0,29.78,South,174,1.4,4.6,78,0.00,BKN,,0.00,149.0,WeatherDisplay:10.37,2013-04-09 13:18:00,
2013-04-09 15:23:00,49.5,42.9,29.78,East,80,3.9,7.0,78,0.00,BKN,,0.00,135.0,WeatherDisplay:10.37,2013-04-09 13:23:00,
2013-04-09 15:28:00,49.5,43.6,29.77,East,92,1.1,4.6,80,0.00,BKN,,0.00,134.0,WeatherDisplay:10.37,2013-04-09 13:28:00,
2013-04-09 15:33:00,49.5,43.6,29.77,ESE,117,1.5,4.0,80,0.00,BKN,,0.00,160.0,WeatherDisplay:10.37,2013-04-09 13:33:00,
2013-04-09 15:38:00,49.6,43.4,29.77,East,82,5.1,9.0,79,0.00,BKN,,0.00,167.0,WeatherDisplay:10.37,2013-04-09 13:38:00,
2013-04-09 15:43:00,49.7,43.5,29.77,ENE,77,4.6,8.0,79,0.00,BKN,,0.00,137.0,WeatherDisplay:10.37,2013-04-09 13:43:00,
2013-04-09 15:48:00,49.7,43.5,29.77,East,91,3.5,6.0,79,0.00,BKN,,0.00,109.0,WeatherDisplay:10.37,2013-04-09 13:48:00,
2013-04-09 15:53:00,49.7,43.5,29.77,East,98,2.9,8.1,79,0.00,BKN,,0.00,100.0,WeatherDisplay:10.37,2013-04-09 13:53:00,
2013-04-09 15:58:00,49.7,43.1,29.77,ENE,76,0.0,2.3,78,0.00,BKN,,0.00,97.0,WeatherDisplay:10.37,2013-04-09 13:58:00,
2013-04-09 16:03:00,49.8,42.9,29.77,East,101,3.3,8.1,77,0.00,BKN,,0.00,104.0,WeatherDisplay:10.37,2013-04-09 14:03:00,
2013-04-09 16:08:00,49.9,43.0,29.77,North,11,2.3,5.0,77,0.00,BKN,,0.00,109.0,WeatherDisplay:10.37,2013-04-09 14:08:00,
2013-04-09 16:13:00,49.9,43.0,29.77,ESE,115,0.6,4.6,77,0.00,BKN,,0.00,139.0,WeatherDisplay:10.37,2013-04-09 14:13:00,
2013-04-09 16:19:00,50.0,41.0,29.77,SE,128,3.2,5.0,71,0.00,BKN,,0.00,163.0,WeatherDisplay:10.37,2013-04-09 14:19:00,
2013-04-09 16:24:00,50.3,40.5,29.77,SSE,164,2.9,5.0,69,0.00,BKN,,0.00,144.0,WeatherDisplay:10.37,2013-04-09 14:24:00,
2013-04-09 16:29:00,50.7,40.9,29.77,ESE,122,0.8,2.3,69,0.00,BKN,,0.00,128.0,WeatherDisplay:10.37,2013-04-09 14:29:00,
2013-04-09 16:35:00,51.0,41.2,29.77,SSE,147,1.0,3.0,69,0.00,BKN,,0.00,130.0,WeatherDisplay:10.37,2013-04-09 14:35:00,
2013-04-09 16:40:00,51.1,40.9,29.77,South,176,1.0,6.0,68,0.00,BKN,,0.00,158.0,WeatherDisplay:10.37,2013-04-09 14:40:00,
2013-04-09 16:45:00,51.2,40.6,29.77,SSE,165,3.4,5.0,67,0.00,BKN,,0.00,163.0,WeatherDisplay:10.37,2013-04-09 14:45:00,
2013-04-09 16:50:00,51.3,40.7,29.77,SSE,156,3.3,6.0,67,0.00,SCT,,0.00,162.0,WeatherDisplay:10.37,2013-04-09 14:50:00,
2013-04-09 16:55:00,51.3,40.7,29.77,South,173,2.5,4.0,67,0.00,SCT,,0.00,158.0,WeatherDisplay:10.37,2013-04-09 14:55:00,
2013-04-09 17:00:00,51.4,41.2,29.77,ESE,110,0.6,2.3,68,0.00,SCT,,0.00,174.0,WeatherDisplay:10.37,2013-04-09 15:00:00,
2013-04-09 17:05:00,51.5,40.9,29.77,SSE,167,4.1,6.0,67,0.00,SCT,,0.00,229.0,WeatherDisplay:10.37,2013-04-09 15:05:00,
2013-04-09 17:10:00,51.6,42.1,29.77,SSE,155,0.5,6.9,70,0.00,SCT,,0.00,279.0,WeatherDisplay:10.37,2013-04-09 15:10:00,
2013-04-09 17:17:00,51.8,40.8,29.77,SE,146,4.5,9.2,66,0.00,CLR,,0.00,267.0,WeatherDisplay:10.37,2013-04-09 15:17:00,
2013-04-09 17:22:00,51.9,40.5,29.77,SE,146,2.2,7.0,65,0.00,CLR,,0.00,225.0,WeatherDisplay:10.37,2013-04-09 15:22:00,
2013-04-09 17:27:00,52.0,40.6,29.77,SSE,159,4.2,8.1,65,0.00,CLR,,0.00,155.0,WeatherDisplay:10.37,2013-04-09 15:27:00,
2013-04-09 17:32:00,51.9,40.5,29.76,ESE,111,2.8,5.8,65,0.00,FEW,,0.00,165.0,WeatherDisplay:10.37,2013-04-09 15:32:00,
2013-04-09 17:37:00,51.7,40.3,29.76,South,181,3.7,6.9,65,0.00,FEW,,0.00,160.0,WeatherDisplay:10.37,2013-04-09 15:37:00,
2013-04-09 17:42:00,51.7,40.7,29.77,ESE,118,4.8,8.0,66,0.00,FEW,,0.00,146.0,WeatherDisplay:10.37,2013-04-09 15:42:00,
2013-04-09 17:47:00,51.6,40.6,29.76,South,172,4.9,8.1,66,0.00,FEW,,0.00,113.0,WeatherDisplay:10.37,2013-04-09 15:47:00,
2013-04-09 17:52:00,51.5,40.5,29.76,SSE,161,4.7,8.1,66,0.00,SCT,,0.00,109.0,WeatherDisplay:10.37,2013-04-09 15:52:00,
2013-04-09 17:58:00,51.3,40.7,29.77,SSE,158,2.1,6.9,67,0.00,SCT,,0.00,114.0,WeatherDisplay:10.37,2013-04-09 15:58:00,
2013-04-09 18:03:00,51.2,40.6,29.77,SE,140,4.5,6.9,67,0.00,SCT,,0.00,98.0,WeatherDisplay:10.37,2013-04-09 16:03:00,
2013-04-09 18:08:00,51.1,40.5,29.77,SE,138,5.0,8.1,67,0.00,FEW,,0.00,97.0,WeatherDisplay:10.37,2013-04-09 16:08:00,
2013-04-09 18:13:00,51.0,40.8,29.77,ESE,109,3.9,7.0,68,0.00,FEW,,0.00,90.0,WeatherDisplay:10.37,2013-04-09 16:13:00,
2013-04-09 18:19:00,50.9,40.7,29.77,ESE,116,3.5,6.0,68,0.00,SCT,,0.00,63.0,WeatherDisplay:10.37,2013-04-09 16:19:00,
2013-04-09 18:24:00,50.7,40.5,29.77,SE,125,5.9,9.0,68,0.00,SCT,,0.00,62.0,WeatherDisplay:10.37,2013-04-09 16:24:00,
2013-04-09 18:30:00,50.6,40.8,29.77,SE,135,5.0,7.0,69,0.00,SCT,,0.00,46.0,WeatherDisplay:10.37,2013-04-09 16:30:00,
2013-04-09 18:35:00,50.4,41.0,29.77,SSE,147,3.0,7.0,70,0.00,SCT,,0.00,40.0,WeatherDisplay:10.37,2013-04-09 16:35:00,
2013-04-09 18:40:00,50.2,41.2,29.77,ESE,118,3.7,8.1,71,0.00,SCT,,0.00,39.0,WeatherDisplay:10.37,2013-04-09 16:40:00,
2013-04-09 18:45:00,50.0,41.0,29.77,SE,132,3.2,6.9,71,0.00,SCT,,0.00,35.0,WeatherDisplay:10.37,2013-04-09 16:45:00,
2013-04-09 18:50:00,49.8,41.1,29.77,SSE,153,2.8,5.8,72,0.00,SCT,,0.00,28.0,WeatherDisplay:10.37,2013-04-09 16:50:00,
2013-04-09 18:55:00,49.7,41.0,29.77,SE,131,3.1,5.0,72,0.00,SCT,,0.00,21.0,WeatherDisplay:10.37,2013-04-09 16:55:00,
2013-04-09 19:00:00,49.5,41.2,29.77,SE,130,0.0,4.0,73,0.00,SCT,,0.00,19.0,WeatherDisplay:10.37,2013-04-09 17:00:00,
2013-04-09 19:07:00,49.2,41.3,29.77,SSE,148,2.1,4.0,74,0.00,SCT,,0.00,19.0,WeatherDisplay:10.37,2013-04-09 17:07:00,
2013-04-09 19:12:00,49.1,41.2,29.77,SE,132,1.1,3.5,74,0.00,SCT,,0.00,11.0,WeatherDisplay:10.37,2013-04-09 17:12:00,
2013-04-09 19:17:00,48.9,41.3,29.77,SE,146,2.0,4.6,75,0.00,SCT,,0.00,5.0,WeatherDisplay:10.37,2013-04-09 17:17:00,
2013-04-09 19:22:00,48.7,41.1,29.77,SE,126,1.4,5.0,75,0.00,SCT,,0.00,0.0,WeatherDisplay:10.37,2013-04-09 17:22:00,
2013-04-09 19:27:00,48.6,41.4,29.77,SSE,154,1.9,4.6,76,0.00,SCT,,0.00,0.0,WeatherDisplay:10.37,2013-04-09 17:27:00,
2013-04-09 19:33:00,48.3,41.1,29.77,SE,140,2.7,8.0,76,0.00,SCT,,0.00,0.0,WeatherDisplay:10.37,2013-04-09 17:33:00,
2013-04-09 19:38:00,48.1,41.2,29.77,SE,144,0.7,3.5,77,0.00,SCT,,0.00,0.0,WeatherDisplay:10.37,2013-04-09 17:38:00,
2013-04-09 19:43:00,48.0,41.1,29.77,SE,140,3.1,5.0,77,0.00,SCT,,0.00,0.0,WeatherDisplay:10.37,2013-04-09 17:43:00,
2013-04-09 19:48:00,47.8,41.3,29.78,SSE,149,2.1,5.0,78,0.00,SCT,,0.00,0.0,WeatherDisplay:10.37,2013-04-09 17:48:00,
2013-04-09 19:54:00,47.6,41.4,29.78,ESE,123,0.4,4.6,79,0.00,SCT,,0.00,0.0,WeatherDisplay:10.37,2013-04-09 17:54:00,
2013-04-09 19:59:00,47.5,41.3,29.78,ESE,123,1.1,3.5,79,0.00,SCT,,0.00,0.0,WeatherDisplay:10.37,2013-04-09 17:59:00,
2013-04-09 20:05:00,47.4,41.2,29.78,SE,130,2.0,5.0,79,0.00,SCT,,0.00,0.0,WeatherDisplay:10.37,2013-04-09 18:05:00,
2013-04-09 20:10:00,47.3,41.4,29.78,SE,133,1.0,5.0,80,0.00,SCT,,0.00,0.0,WeatherDisplay:10.37,2013-04-09 18:10:00,
2013-04-09 20:15:00,47.2,41.3,29.78,SSE,153,1.5,5.0,80,0.00,SCT,,0.00,0.0,WeatherDisplay:10.37,2013-04-09 18:15:00,
2013-04-09 20:20:00,47.1,41.6,29.78,ESE,109,1.7,4.6,81,0.00,SCT,,0.00,0.0,WeatherDisplay:10.37,2013-04-09 18:20:00,
2013-04-09 20:25:00,47.1,41.6,29.78,ESE,114,1.6,8.1,81,0.00,SCT,,0.00,0.0,WeatherDisplay:10.37,2013-04-09 18:25:00,
2013-04-09 20:30:00,47.0,41.8,29.79,ESE,119,3.7,5.0,82,0.00,SCT,,0.00,0.0,WeatherDisplay:10.37,2013-04-09 18:30:00,
2013-04-09 20:36:00,46.9,41.7,29.78,East,94,2.7,6.0,82,0.00,SCT,,0.00,0.0,WeatherDisplay:10.37,2013-04-09 18:36:00,
2013-04-09 20:41:00,46.9,42.0,29.78,East,100,3.0,8.1,83,0.00,SCT,,0.00,0.0,WeatherDisplay:10.37,2013-04-09 18:41:00,
2013-04-09 20:47:00,46.8,41.9,29.79,ESE,107,4.3,9.2,83,0.00,SCT,,0.00,0.0,WeatherDisplay:10.37,2013-04-09 18:47:00,
2013-04-09 20:52:00,46.7,41.8,29.78,ESE,123,4.0,8.1,83,0.00,SCT,,0.00,0.0,WeatherDisplay:10.37,2013-04-09 18:52:00,
2013-04-09 20:57:00,46.6,42.0,29.79,SE,126,3.5,7.0,84,0.00,SCT,,0.00,0.0,WeatherDisplay:10.37,2013-04-09 18:57:00,
2013-04-09 21:02:00,46.6,42.0,29.79,ESE,117,2.9,5.8,84,0.00,SCT,,0.00,0.0,WeatherDisplay:10.37,2013-04-09 19:02:00,
2013-04-09 21:07:00,46.5,41.9,29.79,East,101,3.6,8.1,84,0.00,SCT,,0.00,0.0,WeatherDisplay:10.37,2013-04-09 19:07:00,
2013-04-09 21:12:00,46.3,41.7,29.79,ESE,117,2.9,6.0,84,0.00,SCT,,0.00,0.0,WeatherDisplay:10.37,2013-04-09 19:12:00,
2013-04-09 21:17:00,46.2,41.6,29.79,SE,129,3.3,6.0,84,0.00,SCT,,0.00,0.0,WeatherDisplay:10.37,2013-04-09 19:17:00,
2013-04-09 21:23:00,46.1,41.8,29.79,SE,125,1.6,5.0,85,0.00,SCT,,0.00,0.0,WeatherDisplay:10.37,2013-04-09 19:23:00,
2013-04-09 21:29:00,45.9,41.6,29.79,ESE,111,1.0,3.0,85,0.00,SCT,,0.00,0.0,WeatherDisplay:10.37,2013-04-09 19:29:00,
2013-04-09 21:34:00,45.8,41.9,29.80,ESE,111,0.9,3.5,86,0.00,SCT,,0.00,0.0,WeatherDisplay:10.37,2013-04-09 19:34:00,
2013-04-09 21:40:00,45.8,41.9,29.80,ESE,111,1.0,4.0,86,0.00,SCT,,0.00,0.0,WeatherDisplay:10.37,2013-04-09 19:40:00,
2013-04-09 21:45:00,45.8,41.9,29.80,ESE,113,2.0,3.5,86,0.00,SCT,,0.00,0.0,WeatherDisplay:10.37,2013-04-09 19:45:00,
2013-04-09 21:50:00,45.9,42.2,29.80,NE,53,1.9,5.8,87,0.00,SCT,,0.00,0.0,WeatherDisplay:10.37,2013-04-09 19:50:00,
2013-04-09 21:55:00,46.0,42.3,29.80,ESE,105,2.1,7.0,87,0.00,SCT,,0.00,0.0,WeatherDisplay:10.37,2013-04-09 19:55:00,
2013-04-09 22:00:00,46.0,42.3,29.80,ESE,105,1.9,3.5,87,0.00,SCT,,0.00,0.0,WeatherDisplay:10.37,2013-04-09 20:00:00,
2013-04-09 22:05:00,46.1,42.4,29.80,SSE,152,0.9,3.5,87,0.00,SCT,,0.00,0.0,WeatherDisplay:10.37,2013-04-09 20:05:00,
2013-04-09 22:10:00,46.1,42.4,29.80,ESE,122,2.0,4.6,87,0.00,SCT,,0.00,0.0,WeatherDisplay:10.37,2013-04-09 20:10:00,
2013-04-09 22:16:00,46.1,42.4,29.79,ESE,113,4.2,7.0,87,0.00,SCT,,0.00,0.0,WeatherDisplay:10.37,2013-04-09 20:16:00,
2013-04-09 22:22:00,46.2,42.8,29.79,East,86,3.3,8.1,88,0.00,SCT,,0.00,0.0,WeatherDisplay:10.37,2013-04-09 20:22:00,
2013-04-09 22:27:00,46.2,42.8,29.79,ESE,107,2.1,5.8,88,0.00,SCT,,0.00,0.0,WeatherDisplay:10.37,2013-04-09 20:27:00,
2013-04-09 22:32:00,46.2,42.8,29.79,East,97,4.5,7.0,88,0.00,SCT,,0.00,0.0,WeatherDisplay:10.37,2013-04-09 20:32:00,
2013-04-09 22:38:00,46.2,42.5,29.79,East,98,3.5,8.1,87,0.00,SCT,,0.00,0.0,WeatherDisplay:10.37,2013-04-09 20:38:00,
2013-04-09 22:43:00,46.1,42.7,29.79,East,96,3.2,8.1,88,0.00,SCT,,0.00,0.0,WeatherDisplay:10.37,2013-04-09 20:43:00,
2013-04-09 22:48:00,46.0,42.6,29.79,ESE,118,3.7,8.1,88,0.00,SCT,,0.00,0.0,WeatherDisplay:10.37,2013-04-09 20:48:00,
2013-04-09 22:53:00,45.9,42.5,29.79,East,101,2.7,8.1,88,0.00,SCT,,0.00,0.0,WeatherDisplay:10.37,2013-04-09 20:53:00,
2013-04-09 22:58:00,45.9,42.5,29.80,ENE,78,3.0,7.0,88,0.00,SCT,,0.00,0.0,WeatherDisplay:10.37,2013-04-09 20:58:00,
2013-04-09 23:03:00,45.8,42.4,29.80,ESE,103,2.6,8.1,88,0.00,SCT,,0.00,0.0,WeatherDisplay:10.37,2013-04-09 21:03:00,
2013-04-09 23:08:00,45.7,42.3,29.80,SE,136,2.5,6.9,88,0.00,SCT,,0.00,0.0,WeatherDisplay:10.37,2013-04-09 21:08:00,
2013-04-09 23:15:00,45.5,42.2,29.79,ESE,104,5.5,9.2,88,0.00,SCT,,0.00,0.0,WeatherDisplay:10.37,2013-04-09 21:15:00,
2013-04-09 23:20:00,45.4,42.1,29.80,East,86,5.9,9.2,88,0.00,SCT,,0.00,0.0,WeatherDisplay:10.37,2013-04-09 21:20:00,
2013-04-09 23:25:00,45.3,42.0,29.79,ESE,105,5.1,11.5,88,0.00,SCT,,0.00,0.0,WeatherDisplay:10.37,2013-04-09 21:25:00,
2013-04-09 23:30:00,45.1,41.8,29.80,East,90,4.8,8.1,88,0.00,SCT,,0.00,0.0,WeatherDisplay:10.37,2013-04-09 21:30:00,
2013-04-09 23:35:00,45.0,41.7,29.80,ESE,119,4.1,8.1,88,0.00,SCT,,0.00,0.0,WeatherDisplay:10.37,2013-04-09 21:35:00,
2013-04-09 23:40:00,44.9,41.9,29.80,East,98,6.0,9.2,89,0.00,SCT,,0.00,0.0,WeatherDisplay:10.37,2013-04-09 21:40:00,
2013-04-09 23:45:00,44.8,41.8,29.80,East,97,5.7,10.4,89,0.00,SCT,,0.00,0.0,WeatherDisplay:10.37,2013-04-09 21:45:00,
2013-04-09 23:51:00,44.7,41.7,29.80,ESE,120,4.4,11.5,89,0.00,SCT,,0.00,0.0,WeatherDisplay:10.37,2013-04-09 21:51:00,
2013-04-09 23:56:00,44.7,41.7,29.80,ENE,65,4.2,9.2,89,0.00,SCT,,0.00,0.0,WeatherDisplay:10.37,2013-04-09 21:56:00,